Location: Buisson
(44.2787°N, 4.9969°E)
Time: 07:50:51
(UTC+00:00)

Cosmos 2218 Rocket - Pass Details

Date: 18 April 2021
Orbit: 955 x 1007 km, 82.9° (Epoch: 07 May)

Event Time Altitude Azimuth Distance (km) Brightness Sun altitude
Rises 01:22:47 0° 351° (N) 3,646 7.7 -30.1°
Reaches altitude 10° 01:25:17 10° 352° (N) 2,698 6.9 -29.9°
Maximum altitude 01:31:28 90° 83° (E) 969 3.8 -29.3°
Enters shadow 01:31:33 88° 163° (SSE) 969 3.8 -29.3°
